Location: Newark
(49.8348°N, 24.0280°E)
Time: 14:58:11
(UTC+00:00)

Transit 2A - Pass Details

Date: 21 January 2020
Orbit: 600 x 959 km, 66.7° (Epoch: 23 February)

Event Time Altitude Azimuth Distance (km) Brightness Sun altitude
Rises 03:40:41 0° 323° (NW) 2,937 - -23.8°
Reaches altitude 10° 03:42:53 10° 324° (NW) 2,061 - -23.5°
Exits shadow 03:46:28 55° 326° (NW) 823 5.9 -22.9°
Maximum altitude 03:47:33 89° 56° (NE) 698 5.7 -22.7°
Drops below altitude 10° 03:52:39 10° 145° (SE) 2,254 8.9 -21.9°
Sets 03:55:09 0° 145° (SE) 3,235 9.8 -21.5°
